Great Bend, NY

12:31 PM EST on February 27, 2017 (GMT -0500)
Wheeler-Sack Army Air Field

Weather History for KGTB - January, 2013

Change the Weather History Date:

Saturday, January 26, 2013

  Actual Average Record
Temperature  
Mean Temperature 6 °F -  
Max Temperature 15 °F 22 °F 41 °F (2016)
Min Temperature -2 °F 5 °F -13 °F (2004)
Degree Days  
Heating Degree Days 58    
Moisture  
Dew Point 2 °F    
Average Humidity 78    
Maximum Humidity 92    
Minimum Humidity 53    
Precipitation  
Precipitation 0.00 in - - ()
Sea Level Pressure  
Sea Level Pressure 30.28 in    
Wind  
Wind Speed 3 mph (West)    
Max Wind Speed 7 mph    
Max Gust Speed -    
Visibility 7 miles    
Events Snow    
Averages and records for this station are not official NWS values.
T = Trace of Precipitation, MM = Missing Value Source: NWS Daily Summary

Daily Weather History Graph

Daily Weather History Graph

Search for Another Location

Airport or City:

Trip Planner

Search our weather history database for the weather conditions in past years. The results will help you decide how hot, cold, wet, or windy it might be!

Date:

Astronomy

Jan. 26, 2013 Rise Set
Actual Time 7:26 AM EST 5:05 PM EST
Civil Twilight 6:55 AM EST 5:36 PM EST
Nautical Twilight 6:20 AM EST 6:11 PM EST
Astronomical Twilight 5:46 AM EST 6:45 PM EST
Moon 4:59 PM EST (1/26) 6:41 AM EST (1/26)
Length of Visible Light 10h 41m
Length of Day
9h 38m
Full, 100% of the Moon is Illuminated
Jan 26
Full
Jan 26
Full
Feb 3
Last Quarter
Feb 10
New
Feb 17
First Quarter

Hourly Weather History & Observations

Time (EST) Temp. Windchill Dew Point Humidity Pressure Visibility Wind Dir Wind Speed Gust Speed Precip Events Conditions
12:55 AM 3.2 °F -4.2 °F 1.4 °F 92% 30.17 in 7.0 mi Variable 3.5 mph - N/A Snow Light Snow
1:55 AM 3.2 °F -4.2 °F 1.4 °F 92% 30.14 in 7.0 mi Variable 3.5 mph - N/A   Clear
2:55 AM 3.2 °F - -0.4 °F 85% 30.14 in 7.0 mi Calm Calm - N/A   Clear
3:55 AM 1.4 °F -6.2 °F -2.2 °F 85% 30.15 in 7.0 mi Variable 3.5 mph - N/A   Clear
4:55 AM -0.4 °F - -4.0 °F 85% 30.16 in 7.0 mi Calm Calm - N/A   Partly Cloudy
5:55 AM -2.2 °F - -5.8 °F 85% 30.19 in 7.0 mi Calm Calm - N/A   Clear
6:55 AM -2.4 °F - -5.6 °F 86% 30.14 in 7.0 mi Calm Calm - N/A   Clear
7:55 AM -0.4 °F - -3.8 °F 85% 30.22 in 7.0 mi Calm Calm - N/A   Partly Cloudy
8:55 AM 4.3 °F - 1.6 °F 89% 30.22 in 7.0 mi Calm Calm - N/A   Overcast
9:55 AM 5.4 °F - 2.8 °F 89% 30.25 in 7.0 mi Calm Calm - N/A   Mostly Cloudy
10:55 AM 8.6 °F - 1.4 °F 73% 30.25 in 7.0 mi Calm Calm - N/A   Clear
11:55 AM 11.5 °F - -0.9 °F 57% 30.25 in 7.0 mi Calm Calm - N/A   Clear
12:55 PM 11.5 °F - -0.9 °F 57% 30.26 in 7.0 mi Calm Calm - N/A   Mostly Cloudy
1:55 PM 14.2 °F 6.7 °F 0.5 °F 55% 30.27 in 7.0 mi West 4.6 mph - N/A   Clear
2:55 PM 15.1 °F 7.7 °F 0.9 °F 53% 30.28 in 7.0 mi WNW 4.6 mph - N/A   Scattered Clouds
3:55 PM 15.6 °F 7.0 °F 1.0 °F 53% 30.29 in 7.0 mi WNW 5.8 mph - N/A   Clear
4:55 PM 14.0 °F 8.2 °F 0.3 °F 55% 30.30 in 7.0 mi Variable 3.5 mph - N/A   Clear
5:55 PM 10.9 °F - 1.0 °F 64% 30.32 in 7.0 mi Calm Calm - N/A   Clear
6:55 PM 9.7 °F 1.4 °F 4.3 °F 79% 30.33 in 7.0 mi Variable 4.6 mph - N/A   Partly Cloudy
7:55 PM 8.1 °F -0.5 °F 3.0 °F 80% 30.33 in 7.0 mi SSW 4.6 mph - N/A   Clear
8:37 PM 6.8 °F -2.0 °F 3.2 °F 85% 30.34 in 7.0 mi SSW 4.6 mph - N/A   Mostly Cloudy
8:55 PM 8.6 °F 0.1 °F 3.2 °F 79% 30.37 in 7.0 mi SW 4.6 mph - N/A   Mostly Cloudy
9:15 PM 10.4 °F 2.2 °F 6.8 °F 85% 30.35 in 7.0 mi SW 4.6 mph - N/A   Mostly Cloudy
9:35 PM 14.0 °F 3.9 °F 8.6 °F 79% 30.35 in 7.0 mi West 6.9 mph - N/A Snow Light Snow
9:55 PM 13.8 °F 3.7 °F 9.9 °F 84% 30.39 in 7.0 mi West 6.9 mph - 0.00 in   Mostly Cloudy
10:10 PM 12.2 °F 6.1 °F 8.6 °F 85% 30.36 in 3.0 mi North 3.5 mph - N/A Snow Light Snow
10:22 PM 12.2 °F 6.1 °F 8.6 °F 85% 30.37 in 3.0 mi WNW 3.5 mph - N/A Snow Light Snow
10:35 PM 12.2 °F 6.1 °F 8.6 °F 85% 30.37 in 6.0 mi West 3.5 mph - N/A Snow Light Snow
10:55 PM 12.2 °F 6.1 °F 10.4 °F 92% 30.38 in 7.0 mi West 3.5 mph - N/A   Scattered Clouds
11:56 PM 11.8 °F 5.7 °F 9.7 °F 91% 30.39 in 7.0 mi NW 3.5 mph - 0.00 in   Partly Cloudy